Location: Unspecified
(25.6470°N, 106.8560°E)
Time: 10:22:15
(UTC+00:00)

Daily predictions for brighter satellites

Satellite Brightness Start Highest point End
(mag) Time Altitude Azimuth Time Altitude Azimuth Time Altitude Azimuth
ALOS 4.4 12:16:30 10° SSW 12:20:16 24° W 12:24:04 10° NW
MOS 1-B Rocket 4.3 12:16:15 10° SSE 12:22:52 88° ENE 12:30:45 10° NNW
CZ-4C R/B 4.5 12:16:49 10° N 12:18:56 19° N 12:18:56 19° N
Cosmos 2369 Rocket 4.0 12:43:48 10° SSW 12:46:03 25° SW 12:46:03 25° SW
Milstar 3 Cent rocket 4.0 20:06:07 56° SSE 20:06:48 57° SSE 20:23:34 10° ENE
Cosmos 2278 Rocket 4.2 20:17:03 24° ESE 20:17:03 24° ESE 20:19:34 10° SE
Orbus 21S 4.0 20:45:34 47° ESE 20:45:34 47° ESE 20:47:41 10° E
Cosmos 2173 Rocket 4.2 20:49:56 64° SSE 20:49:56 64° SSE 20:55:17 10° S
Cosmos 1459 Rocket 4.4 21:01:07 48° S 21:01:07 48° S 21:05:22 10° S
Meteor 2-10 Rocket 3.9 21:01:13 65° SSE 21:01:13 65° SSE 21:06:05 10° S
Cosmos 1992 Rocket 4.1 21:08:49 68° NE 21:08:49 68° NE 21:13:26 10° NNE
Meteor 2-3 Rocket 4.1 21:02:56 10° S 21:08:38 63° E 21:14:18 10° NNE
Atlas Centaur 2 3.0 21:14:35 52° NW 21:16:35 71° NNE 21:25:07 10° E
Delta 198 4.2 21:18:45 42° ESE 21:18:45 42° ESE 21:21:29 10° E
SL-16 R/B 4.4 21:23:23 11° N 21:23:23 11° N 21:23:32 10° N
Cosmos 1603 3.9 21:17:50 10° S 21:23:24 70° ESE 21:29:01 10° NNE
Cosmos 2242 Rocket 3.4 21:28:19 73° N 21:28:44 90° WNW 21:33:08 10° S
Cosmos 1802 Rocket 4.0 21:28:01 50° WNW 21:28:45 53° W 21:34:50 10° SSW
GPS 2-15 Rocket1 4.0 21:29:13 36° SSW 21:30:00 39° S 21:34:21 10° ESE
Cosmos 1862 Rocket 3.6 21:33:35 26° N 21:36:05 82° E 21:40:30 10° S
Cosmos 1503 Rocket 4.3 21:34:36 14° N 21:39:04 63° ENE 21:44:10 10° SSE
SL-08 R/B 4.5 21:34:37 10° NNW 21:40:56 63° W 21:47:11 10° S
Cosmos 2123 Rocket 4.2 21:35:09 10° SSW 21:40:59 43° W 21:46:53 10° NNW
Hubble Space Telescope 0.9 21:43:25 53° NNW 21:43:50 56° N 21:47:54 10° ENE
Feng Yun 1-1 Rocket 4.5 21:42:13 10° NNE 21:48:10 81° ESE 21:54:01 10° S
CZ-4B R/B 3.7 21:43:13 10° N 21:48:17 35° WNW 21:53:19 10° SW
ASTRO E2 3.3 21:49:54 38° SW 21:50:31 42° SSW 21:54:17 10° SE
Cosmos 1825 2.4 21:46:53 10° S 21:50:37 69° E 21:54:21 10° N
Cosmos 1725 Rocket 3.9 21:45:20 10° NNW 21:51:23 60° W 21:57:25 10° S
Meteor 1-26 Rocket 4.1 21:46:51 10° N 21:52:26 74° W 21:58:06 10° S
Cosmos 2297 3.6 21:48:28 19° NNW 21:52:34 71° WSW 21:58:12 10° S
IDEFIX/ARIANE 42P 3.2 21:52:19 10° NNE 21:57:26 59° E 22:02:31 10° S
Cosmos 2278 Rocket 3.5 21:58:59 20° WSW 21:58:59 20° WSW 22:02:12 10° SSW
GPS 2-17 Rocket1 4.0 22:01:00 19° WSW 22:03:56 41° S 22:08:12 10° ESE
Genesis I 4.0 22:02:47 10° S 22:06:30 54° ESE 22:10:19 10° NE
ISS -2.5 22:07:33 24° WSW 22:07:41 24° SW 22:10:22 10° S
IUS-1 SRM-2 3.7 22:13:28 21° W 22:16:15 84° S 22:34:28 10° E
Cosmos 1354 Rocket 4.2 22:11:58 10° NNW 22:17:00 50° WSW 22:22:01 10° S
Cosmos 1606 2.6 22:19:19 10° N 22:23:08 90° E 22:26:58 10° S
Cosmos 2221 Rocket 4.2 22:21:06 10° N 22:25:32 62° E 22:30:00 10° SSE
Cosmos 1943 3.2 22:21:22 10° SSW 22:26:57 59° WNW 22:32:34 10° N
Okean-O 3.2 22:24:24 10° N 22:28:25 34° WNW 22:32:25 10° SW
Aureole 3 4.2 22:25:33 10° SSE 22:28:46 42° E 22:31:40 10° NNE
USA 229 DEB 3.9 22:22:59 10° NNW 22:30:11 68° WSW 22:37:29 10° SSE
USA 229 3.9 22:23:04 10° NNW 22:30:17 68° WSW 22:37:35 10° SSE
Shenzhou-11 Module 4.2 22:27:47 10° SSW 22:30:22 26° SE 22:32:59 10° ENE
Cosmos 1408 3.7 22:28:02 10° SW 22:31:04 23° W 22:34:07 10° NNW
Cosmos 1869 Rocket 4.0 22:27:47 10° SSW 22:31:50 39° W 22:35:57 10° NNW
ATLAS 5 CENTAUR R/B 2.3 22:31:08 10° WSW 22:35:09 33° WNW 22:39:25 10° N
Cosmos 1703 Rocket 3.6 22:31:08 10° NNW 22:35:22 53° W 22:39:34 10° S
Centaur D-1AR AC-48 3.4 22:34:40 10° WSW 22:37:59 31° S 22:44:16 10° ESE
Cosmos 1782 2.9 22:35:23 10° NNW 22:39:14 53° W 22:43:05 10° S
MSX 3.8 22:38:19 10° N 22:44:04 78° WNW 22:49:48 10° SSW
Cosmos 1464 Rocket 4.1 22:39:30 10° N 22:45:49 89° WSW 22:52:11 10° S
Tsikada Rocket 4.3 22:41:30 10° S 22:47:48 76° E 22:54:03 10° N
GOES 2 Rocket 4.5 22:39:15 10° WNW 22:48:06 79° SSW 22:54:40 10° ESE
COSMO-SKYMED 1 3.1 22:44:24 10° S 22:48:28 40° W 22:52:33 10° NNW
Cosmos 405 Rocket 2.6 22:50:16 10° NNW 22:53:58 65° W 22:57:43 10° S
Cosmos 2084 Rocket 3.8 22:51:59 10° NW 22:55:37 40° WSW 22:59:20 10° S
COSMOS 2441 4.5 22:51:47 10° N 22:56:35 58° WNW 23:01:19 10° SSW
Meteor 1-27 Rocket 3.9 22:51:28 10° N 22:57:16 84° E 23:02:55 10° S
CZ-3A R/B 3.3 22:56:51 10° WSW 23:11:53 68° S 23:15:09 10° E
